Find Local Weather

World > North America > United States > Washington

Seattle, Washington Regional Weather

Lat: 47.61N, Lon: 122.33W
Wx Zone: WAZ558
Feedback
Expires:201807211000;;815047
ASUS46 KSEW 210910
RWRWA 

WASHINGTON REGIONAL WEATHER ROUNDUP
NATIONAL WEATHER SERVICE SEATTLE WA
200 AM PDT SAT JUL 21 2018

NOTE:"FAIR" INDICATES FEW OR NO CLOUDS BELOW 12,000 FEET WITH NO 
SIGNIFICANT WEATHER AND/OR OBSTRUCTIONS TO VISIBILITY.


WAZ507-509-555>559-211000-
SEATTLE, TACOMA, EVERETT, AND VICINITY
  
CITY           SKY/WX    TMP DP  RH WIND       PRES   REMARKS
EVERETT        CLEAR     54  50  86 VRB6      30.13F                  
BOEING FIELD   CLEAR     61  49  64 VRB3      30.12F                  
RENTON         CLEAR     61  51  70 NW5       30.11F                  
SEATAC AIRPORT PTCLDY    61  48  62 NE7       30.12F                  
JBLM-MCCHORD   CLEAR     58  51  78 W3        30.12S                  
PUYALLUP       FAIR      54  50  87 CALM      30.13S                  
BREMERTON      CLEAR     49  47  93 CALM      30.13S                  
JBLM-FT LEWIS  CLEAR     57  51  81 CALM      30.12S                  
TACOMA NARROWS CLEAR     56  47  71 CALM      30.13F                  
$$
 

SKY/WX - Weather  TMP - Temperature  DP - Dewpoint  RH - Relative Humidity
WIND - Wind Direction/Speed PRES - Barometric Pressure